STARLINK-31813, 60128

Orbit data source: Space-Track

STARLINK-31813, 60128 is a payload satellite owned by SpaceX/Seattle (US) in LEO that was launched on Mon, 24 Jun 2024 UTC via an FALCON 9 launch vehicle from the Air Force Western Test Range (AFWTR). Payload-class satellites include a variety of spacecraft equipped with specific instruments for various scientific and technological missions. These include communications satellites like Starlink; space stations such as the ISS; scientific satellites like the Hubble; Earth observation satellites from companies like Planet Labs, Umbra, and HawkEye 360; GPS; miniature CubeSats for education and research; and military/defense satellites.

Loading next visibility...
Identifier
60128, 2024-118R
Orbit
LEO
Country
Flag of USUS
Related business
Manufacturer
SpaceX/Seattle
Mission
Operational Commercial Communications
Bus & Motor
STARLINK V2M, Unknown motor
Mass
730 kg wet, ~700 kg dry
Launch date (UTC)
2024-06-24 (1 year ago)
Launch vehicle
FALCON 9
Launch site
Air Force Western Test Range (AFWTR)
Object type
Payload
Rocket body
Debris
Shape & HBR
Box + 2 Pan, 17.7 m
Radar Cross Section
33.884 m², Large (>1 m²)

Expand to show TLE details & history
Last TLE update: 16 hours ago

TLE from 16 hours ago
0 STARLINK-31813
1 60128U 24118R   25293.37605657 -.00000535  00000-0 -59349-5 0  9993
2 60128  53.1604 318.4709 0001082  96.3826 263.7298 15.30193162 74217
Epoch: 2025-10-20T09:01Z
TLE epoch observation values (Epoch: 2025-10-20T09:01:31.287Z)
Latitude
-0.00003°
Longitude
154.01126°
Altitude
476.216 km
Speed
7.629 km/s
True Right ascension
21h 13m 53s
True Declination
0° 00' 00"
Sunlit
Object was in full shadow at epoch
Visualization orbit readout
Latitude
Unknown
Longitude
Unknown
Altitude
Unknown
Speed
Unknown
Apparent Right ascension
Unknown
Apparent Declination
Unknown
Sunlit
N/A
Visualization observer readout
Local Sidereal Time
19:54:28
Azimuth
Unknown
Elevation
Unknown
Doppler factor
Unknown
Orbital elements
Apogee altitude
476.233 km
Perigee altitude
474.75 km
Semi-major axis
6,853.629 km
Eccentricity
0.00011
Inclination
53.1604°
RAAN
318.4709°
Arg. of periapsis
96.3826°
True anomaly
263.71748°
Mean anomaly
263.7298°
Eccentric anomaly
263.72364°
Mean motion
3.82527 °/min
Orbital period
94.11 mins
BSTAR
-0.0000059349
Loading maneuver chart data...
Computing Atmospheric mass density...
Loading historical data...
Loading historical data...
Loading historical data...
Loading historical data...
Loading historical data...
Loading historical data...
Loading historical data...

Documentation

Showing up to 5 results
|